[[{"header":{"parameterUnit":"m.s-1","parameterCategory":1,"la1":30.2991,"la2":30.254,"lo1":-89.0895,"lo2":-89.0444,"dy":0.0017,"dx":0.0017,"nx":28,"ny":28,"refTime":"2024-03-21T09:00:00:Z","depth":0,"parameterNumber":2,"parameterNumberName":"U-component_of_WINDS"},"data":[0,0,0,0,0,0,0,0,0,0,0,0,0,0,0,0,0,0,0,0,0,0,0,0,0,0,0,0,0,0,0,0,0,0,0,0,0,0,0,0,0,0,0,0,0,0,0,0,0,0,0,0,0,0,0,0,0,0,-5.3548,-5.3549,0,-5.3716,-5.3718,-5.372,-5.3701,-5.3698,-5.3695,-5.3693,-5.3867,-5.3874,-5.3881,0,0,0,0,0,0,0,0,0,0,0,0,0,-5.3211,-5.3217,-5.3547,-5.3549,-5.3552,-5.3716,-5.3718,-5.372,-5.3701,-5.3698,-5.3695,-5.3692,-5.3865,-5.3873,-5.3882,0,0,0,0,0,0,0,0,0,0,0,0,0,-5.3366,-5.3219,-5.3547,-5.3562,-5.3565,-5.3715,-5.3718,-5.3721,-5.3702,-5.3698,-5.3694,-5.369,-5.3862,-5.3873,-5.3883,-5.403,0,0,-5.3916,-5.3921,0,0,0,0,0,0,0,0,-5.3357,-5.3379,-5.3558,-5.3561,-5.3565,-5.3683,-5.3663,-5.3825,-5.3703,-5.365,-5.3693,-5.3688,-5.3809,-5.3824,-5.3865,-5.4039,-5.4046,-5.3917,-5.3923,-5.3928,-5.3931,0,0,0,0,0,0,0,-5.3347,-5.3371,-5.3614,-5.356,-5.3565,-5.3561,-5.3578,-5.3694,-5.375,-5.3654,-5.3653,-5.3673,-5.3811,-5.3855,-5.3869,-5.4049,-5.3917,-5.3926,-5.3933,-5.3937,-5.4351,-5.4355,0,0,0,0,0,0,-5.3332,-5.3362,-5.3609,-5.3619,-5.3449,-5.357,-5.359,-5.3649,-5.3749,-5.376,-5.3677,-5.3672,-5.3838,-5.3856,-5.3875,-5.4052,-5.3928,-5.3938,-5.3944,-5.4346,-5.4352,-5.4357,0,0,0,0,0,0,-5.3325,-5.3354,-5.3602,-5.3491,-5.3522,-5.358,-5.3647,-5.3655,-5.3698,-5.3766,-5.3776,-5.3711,-5.3836,-5.386,-5.3991,-5.4057,-5.3943,-5.3953,-5.4341,-5.4348,-5.4354,-5.4407,0,0,0,0,0,0,-5.3315,-5.3352,-5.3407,-5.3492,-5.3528,-5.3715,-5.3651,-5.3661,-5.3717,-5.3712,-5.3801,-5.3812,-5.3834,-5.3976,-5.4002,-5.407,-5.3961,-5.4335,-5.4344,-5.4352,-5.44,-5.4415,-5.4428,0,0,0,0,0,-5.3303,-5.3416,-5.341,-5.344,-5.3599,-5.3719,-5.3739,-5.3763,-5.3722,-5.3779,-5.3822,-5.3809,-5.4047,-5.3989,-5.4019,-5.4091,-5.4331,-5.4341,-5.4351,-5.4394,-5.4412,-5.4428,0,0,0,0,0,0,-5.3338,-5.3428,-5.3422,-5.3566,-5.3635,-5.3715,-5.3787,-5.3782,-5.3864,-5.3857,-5.3883,-5.3903,-5.4036,-5.4078,-5.4012,-5.4239,-5.4184,-5.42,-5.4205,-5.4224,-5.4238,-5.4223,-5.397,0,0,0,0,0,-5.3363,-5.3452,-5.3526,-5.3646,-5.3681,-5.3729,-5.3782,-5.3794,-5.3867,-5.3896,-5.3949,-5.4021,-5.4112,-5.4171,-5.4258,-5.4408,-5.4426,-5.4472,-5.4486,-5.4498,-5.451,-5.4591,-5.4612,-5.439,-5.439,-5.439,0,0,-5.3414,-5.3474,-5.3529,-5.3655,-5.3709,-5.3801,-5.3753,-5.3853,-5.3921,-5.3911,-5.4037,-5.408,-5.4162,-5.4302,-5.4367,-5.4341,-5.4576,-5.4511,-5.4519,-5.4526,-5.4603,-5.4624,-5.4643,-5.4397,-5.4396,-5.4395,0,0,-5.3554,-5.3609,-5.3714,-5.377,-5.3854,-5.3885,-5.391,-5.3992,-5.4019,-5.4147,-5.4141,-5.4224,-5.4381,-5.4439,-5.4489,-5.4652,-5.4642,-5.4681,-5.4753,-5.4831,-5.4848,-5.4864,-5.4919,-5.4939,-5.4694,-5.4694,-5.4695,0,-5.3606,-5.3744,-5.3769,-5.3869,-5.3924,-5.392,-5.4025,-5.408,-5.4188,-5.4226,-5.4196,-5.4392,-5.4447,-5.46,-5.464,-5.4682,-5.4711,-5.4668,-5.4844,-5.486,-5.4874,-5.4928,-5.4949,-5.4698,-5.4698,-5.4697,-5.4697,0,-5.3804,-5.39,-5.3975,-5.4078,-5.4142,-5.4245,-5.4285,-5.4348,-5.4356,-5.439,-5.452,-5.4587,-5.4687,-5.4725,-5.4734,-5.488,-5.4861,-5.4838,-5.4782,-5.4899,-5.4949,-5.497,-5.4704,-5.4702,-5.4701,-5.47,0,0,-5.3966,-5.4083,-5.4109,-5.4156,-5.4249,-5.4323,-5.4427,-5.4525,-5.4576,-5.4653,-5.4739,-5.4872,-5.4851,-5.4908,-5.4924,-5.4994,-5.5116,-5.4962,-5.4964,-5.4985,-5.5278,-5.5291,-5.5314,-5.5112,-5.5116,-5.5119,-5.5269,0,-5.4111,-5.4292,-5.4318,-5.4478,-5.4566,-5.4565,-5.4655,-5.4722,-5.4758,-5.4839,-5.4879,-5.4972,-5.4939,-5.4973,-5.5041,-5.5086,-5.5174,-5.5076,-5.519,-5.5194,-5.5165,-5.5341,-5.5356,-5.5494,-5.529,-5.5293,-5.5295,0,-5.4304,-5.4384,-5.4552,-5.4632,-5.4671,-5.4751,-5.4841,-5.492,-5.4996,-5.5018,-5.5082,-5.509,-5.5197,-5.5141,-5.5289,-5.5222,-5.5271,-5.53,-5.5306,-5.5314,-5.5248,-5.535,-5.554,-5.5559,-5.5327,-5.5325,-5.5322,0,-5.4401,-5.4551,-5.4671,-5.4711,-5.4809,-5.4865,-5.4909,-5.4982,-5.5038,-5.5119,-5.5156,-5.525,-5.5299,-5.5372,-5.5405,-5.5361,-5.555,-5.5496,-5.5569,-5.5568,-5.5605,-5.5601,-5.5801,-5.5644,-5.5644,-5.5643,-5.5643,0,-5.4558,-5.466,-5.4715,-5.4788,-5.4903,-5.4933,-5.5046,-5.5088,-5.5153,-5.5235,-5.5242,-5.5318,-5.5359,-5.5442,-5.547,-5.5587,-5.5611,-5.563,-5.5635,-5.5627,-5.5624,-5.5656,-5.5645,-5.5649,-5.5648,-5.5647,-5.5646,0,-5.4683,-5.4724,-5.4854,-5.4936,-5.496,-5.504,-5.5111,-5.5182,-5.5219,-5.5322,-5.5348,-5.5406,-5.5504,-5.5546,-5.5667,-5.5685,-5.5818,-5.5818,-5.5791,-5.5792,-5.5861,-5.5852,-5.6084,-5.6115,-5.5942,-5.5943,-5.5945,0,-5.4778,-5.4856,-5.4947,-5.5001,-5.5046,-5.5135,-5.5193,-5.5227,-5.5287,-5.5381,-5.5441,-5.5539,-5.5619,-5.5776,-5.5829,-5.5922,-5.5922,-5.5997,-5.5935,-5.5924,-5.5918,-5.5911,-5.5918,-5.6006,-5.6008,-5.601,-5.6011,0,-5.4941,-5.4958,-5.504,-5.5131,-5.5199,-5.5272,-5.5344,-5.5389,-5.5434,-5.5502,-5.5602,-5.5664,-5.5787,-5.5884,-5.598,-5.6026,-5.6026,-5.6031,-5.6052,-5.6041,-5.6021,-5.6029,-5.5817,-5.6024,-5.6023,-5.6022,-5.6021,-5.602,-5.5051,-5.512,-5.5194,-5.5286,-5.5344,-5.541,-5.5481,-5.5527,-5.561,-5.5712,-5.5729,-5.5835,-5.5911,-5.6039,-5.609,-5.6174,-5.6155,-5.6186,-5.6193,-5.6199,-5.6201,-5.6011,-5.6192,-5.6192,-5.6191,-5.6191,-5.6191,0,-5.5211,-5.5259,-5.5344,-5.5443,-5.5515,-5.551,-5.559,-5.565,-5.5743,-5.5814,-5.5892,-5.6007,-5.6102,-5.6163,-5.6259,-5.6314,-5.6316,-5.6338,-5.6331,-5.6342,-5.6215,-5.6185,-5.6334,-5.6334,-5.6334,-5.6334,-5.6334,-5.6334,-5.5302,-5.5417,-5.5444,-5.5588,-5.5636,-5.5739,-5.5784,-5.5846,-5.5902,-5.603,-5.6108,-5.6147,-5.6215,-5.6315,-5.6402,-5.6418,-5.6451,-5.6473,-5.6487,-5.6366,-5.6351,-5.6336,-5.6308,-5.6481,-5.6481,-5.6606,-5.6607,-5.6608]},{"header":{"parameterUnit":"m.s-1","parameterCategory":1,"la1":30.2991,"la2":30.254,"lo1":-89.0895,"lo2":-89.0444,"dy":0.0017,"dx":0.0017,"nx":28,"ny":28,"refTime":"2024-03-21T09:00:00:Z","depth":0,"parameterNumber":3,"parameterNumberName":"V-component_of_WINDS"},"data":[0,0,0,0,0,0,0,0,0,0,0,0,0,0,0,0,0,0,0,0,0,0,0,0,0,0,0,0,0,0,0,0,0,0,0,0,0,0,0,0,0,0,0,0,0,0,0,0,0,0,0,0,0,0,0,0,0,0,3.5038,3.5037,0,3.496,3.4959,3.4958,3.4797,3.4794,3.4791,3.4788,3.4711,3.4712,3.4713,0,0,0,0,0,0,0,0,0,0,0,0,0,3.5053,3.5054,3.5038,3.5037,3.5036,3.496,3.4959,3.4958,3.4798,3.4794,3.479,3.4786,3.4711,3.4712,3.4713,0,0,0,0,0,0,0,0,0,0,0,0,0,3.5018,3.5054,3.5038,3.4947,3.4938,3.496,3.4959,3.4958,3.4799,3.4794,3.4789,3.4784,3.471,3.4712,3.4713,3.4819,0,0,3.4718,3.4718,0,0,0,0,0,0,0,0,3.502,3.5018,3.4961,3.4953,3.4943,3.4883,3.4936,3.4911,3.48,3.4852,3.4788,3.4782,3.4772,3.4769,3.4765,3.4816,3.4812,3.4718,3.4719,3.4719,3.472,0,0,0,0,0,0,0,3.5023,3.502,3.5007,3.4961,3.495,3.4911,3.4901,3.4931,3.484,3.4847,3.4835,3.4828,3.4767,3.4764,3.4762,3.4811,3.4718,3.4719,3.472,3.472,3.4948,3.4953,0,0,0,0,0,0,3.5038,3.5023,3.501,3.5005,3.4971,3.4915,3.4903,3.4908,3.4839,3.4824,3.4832,3.482,3.4763,3.476,3.4758,3.488,3.4719,3.4721,3.4721,3.4943,3.4949,3.4954,0,0,0,0,0,0,3.5039,3.5039,3.5013,3.5011,3.5005,3.492,3.4926,3.4909,3.4905,3.4828,3.4812,3.4845,3.4759,3.4756,3.4805,3.4875,3.4721,3.4723,3.4937,3.4945,3.4952,3.5123,0,0,0,0,0,0,3.504,3.504,3.5078,3.5013,3.5005,3.5061,3.493,3.4911,3.4908,3.4892,3.4836,3.4822,3.4755,3.4804,3.4807,3.4874,3.4724,3.493,3.494,3.4949,3.511,3.5135,3.5156,0,0,0,0,0,3.5041,3.513,3.5081,3.508,3.5051,3.5065,3.5061,3.4981,3.4914,3.4953,3.4904,3.4824,3.4867,3.4811,3.4812,3.4881,3.4925,3.4937,3.4949,3.51,3.513,3.5156,0,0,0,0,0,0,3.5206,3.5119,3.5064,3.5134,3.5108,3.5038,3.5084,3.5015,3.5009,3.4994,3.4897,3.4886,3.4949,3.4919,3.4858,3.4981,3.4883,3.4896,3.4998,3.5026,3.5049,3.5055,3.4725,0,0,0,0,0,3.525,3.5267,3.5191,3.526,3.5249,3.517,3.5172,3.5113,3.5083,3.5072,3.5026,3.5001,3.5008,3.5015,3.5018,3.5105,3.5092,3.5153,3.5176,3.5196,3.5208,3.5255,3.5282,3.4993,3.4993,3.4992,0,0,3.5342,3.5296,3.5313,3.5292,3.5264,3.5286,3.5161,3.5189,3.5204,3.5076,3.512,3.5086,3.5051,3.5121,3.5149,3.5098,3.5285,3.521,3.5226,3.5228,3.527,3.5297,3.5322,3.5001,3.4999,3.4998,0,0,3.552,3.5487,3.5541,3.5517,3.5477,3.5424,3.5438,3.5378,3.535,3.5393,3.5298,3.5315,3.533,3.531,3.5302,3.5475,3.5403,3.5479,3.56,3.5646,3.5669,3.5689,3.5753,3.5777,3.5491,3.5492,3.5492,0,3.5639,3.5667,3.5578,3.5612,3.5607,3.5491,3.5547,3.5528,3.5492,3.5492,3.5435,3.5452,3.5421,3.5485,3.5528,3.5524,3.5538,3.5485,3.5673,3.5692,3.5709,3.5769,3.5793,3.5501,3.55,3.5499,3.5498,0,3.5817,3.5837,3.5886,3.5854,3.5854,3.5899,3.5819,3.583,3.5772,3.5725,3.5771,3.5729,3.5723,3.5733,3.5676,3.5791,3.5761,3.569,3.559,3.5748,3.5803,3.5825,3.5515,3.5512,3.5509,3.5506,0,0,3.6096,3.6015,3.6035,3.602,3.5969,3.5984,3.6025,3.6017,3.603,3.6009,3.6043,3.6059,3.5993,3.5985,3.5924,3.5965,3.6109,3.5889,3.5887,3.5934,3.6235,3.629,3.6318,3.606,3.6064,3.6067,3.6239,0,3.6264,3.6328,3.6251,3.6332,3.6351,3.6242,3.6278,3.6252,3.621,3.6222,3.6175,3.6189,3.6101,3.6095,3.613,3.6084,3.6168,3.607,3.6092,3.6094,3.6106,3.6346,3.6404,3.6568,3.6259,3.6263,3.6265,0,3.6469,3.6458,3.6542,3.6487,3.6492,3.6526,3.6514,3.6526,3.6495,3.6461,3.6453,3.6381,3.6419,3.6322,3.6374,3.631,3.6314,3.6293,3.6297,3.6298,3.6191,3.6356,3.6618,3.6644,3.6298,3.6295,3.6293,0,3.6667,3.6674,3.6725,3.6715,3.6652,3.6679,3.6654,3.6618,3.6619,3.6609,3.661,3.6605,3.6603,3.6602,3.6532,3.6467,3.6595,3.6491,3.6571,3.6573,3.6604,3.6603,3.6874,3.6604,3.6604,3.6603,3.6603,0,3.6864,3.692,3.6813,3.6845,3.6905,3.6817,3.6879,3.6844,3.6813,3.6837,3.6743,3.6768,3.6673,3.6689,3.6634,3.6688,3.6687,3.6663,3.6649,3.6673,3.6677,3.6676,3.6664,3.661,3.6608,3.6607,3.6606,0,3.7096,3.7027,3.7076,3.7012,3.6998,3.7046,3.6992,3.702,3.6972,3.7004,3.7007,3.6933,3.6947,3.6876,3.6878,3.6841,3.6924,3.6888,3.6934,3.6924,3.7009,3.7003,3.729,3.7324,3.7032,3.7034,3.7037,0,3.7228,3.7268,3.7209,3.7218,3.7198,3.7214,3.7215,3.713,3.7136,3.7104,3.7137,3.7143,3.7144,3.7172,3.7119,3.712,3.7086,3.7186,3.7086,3.711,3.7091,3.709,3.7095,3.7208,3.7212,3.7215,3.7217,0,3.7469,3.7433,3.7437,3.743,3.7434,3.7425,3.741,3.7423,3.7331,3.7342,3.7355,3.7356,3.7358,3.7366,3.7357,3.7333,3.7262,3.7249,3.7268,3.7295,3.7321,3.731,3.6994,3.7243,3.7241,3.7239,3.7237,3.7236,3.7656,3.7688,3.7652,3.766,3.764,3.7628,3.7652,3.7607,3.7616,3.7611,3.756,3.7584,3.7554,3.7534,3.7517,3.7536,3.7489,3.7516,3.7523,3.7531,3.7548,3.7316,3.7534,3.7533,3.7532,3.7531,3.7531,0,3.7894,3.7866,3.7875,3.7856,3.7864,3.7794,3.7774,3.7786,3.7807,3.7784,3.7787,3.7804,3.7812,3.776,3.7762,3.7787,3.7754,3.7791,3.7789,3.7785,3.7588,3.7573,3.7817,3.7817,3.7817,3.7817,3.7817,3.7817,3.8019,3.807,3.803,3.8071,3.8042,3.8064,3.8059,3.8049,3.803,3.8053,3.8059,3.8024,3.7991,3.799,3.7996,3.798,3.7987,3.8035,3.8009,3.7827,3.7799,3.7772,3.7757,3.8036,3.8037,3.8204,3.8206,3.8207]}]]